DW3901 Weather Reports


time (UTC)temp
C
wind
direction
speed
KPH
gust
KPH
rain 1hr
cm
rain 24hr
cm
rain mn
cm
humidity
%
barometer
mb
20260506044517 15 355 16.1 24.1 0.00 0.00 0.00 79 1006.6
20260506043013 15 351 12.9 25.7 0.00 0.00 0.00 80 1006.4
20260506041510 15 355 16.1 22.5 0.00 0.00 0.00 79 1006.2
20260506040010 16 22 14.5 24.1 0.00 0.00 0.00 79 1005.9
20260506034505 16 313 16.1 25.7 0.00 0.00 0.00 80 1006.0
20260506033002 16 301 16.1 25.7 0.00 0.00 0.00 79 1005.8
20260506031558 17 295 12.9 24.1 0.00 0.00 0.00 78 1005.4
20260506030058 17 318 16.1 22.5 0.00 0.00 0.00 78 1005.2
20260506024555 18 350 17.7 25.7 0.00 0.00 0.00 78 1004.8
20260506023057 19 329 12.9 25.7 0.00 0.00 0.00 77 1004.1
20260506021554 19 342 9.7 20.9 0.00 0.00 0.00 77 1003.8
20260506020041 20 333 11.3 20.9 0.00 0.00 0.00 77 1003.7
20260506014543 20 315 9.7 20.9 0.00 0.00 0.00 76 1003.4
20260506013036 20 346 14.5 29.0 0.00 0.00 0.00 76 1003.2
20260506011533 21 326 16.1 22.5 0.00 0.00 0.00 74 1003.0
20260506010045 22 360 12.9 17.7 0.00 0.00 0.00 74 1002.4
20260506004530 22 355 9.7 19.3 0.00 0.00 0.00 72 1002.3
20260506003032 22 333 11.3 17.7 0.00 0.00 0.00 71 1002.2
20260506001529 23 298 16.1 24.1 0.00 0.00 0.00 70 1001.9
20260506000029 23 306 12.9 22.5 0.00 0.00 0.00 69 1001.9
20260505234539 25 310 16.1 24.1 0.00 0.00 0.00 67 1001.8
20260505233035 26 302 12.9 22.5 0.00 0.00 0.00 62 1001.5
20260505231531 27 316 16.1 24.1 0.00 0.00 0.00 59 1001.2
20260505230026 28 286 6.4 14.5 0.00 0.00 0.00 53 1000.6
20260505224530 28 238 6.4 16.1 0.00 0.00 0.00 53 1000.9
20260505223025 29 299 8.0 22.5 0.00 0.00 0.00 51 1000.4
20260505221525 31 233 11.3 17.7 0.00 0.00 0.00 52 1000.1
20260505220025 30 250 9.7 22.5 0.00 0.00 0.00 53 1000.2
20260505214544 31 226 12.9 25.7 0.00 0.00 0.00 54 1000.4
20260505213021 31 219 19.3 25.7 0.00 0.00 0.00 52 1000.5
20260505211520 30 234 24.1 32.2 0.00 0.00 0.00 52 1000.5
20260505210019 31 196 12.9 25.7 0.00 0.00 0.00 54 1000.6
20260505204519 30 230 11.3 25.7 0.00 0.00 0.00 56 1000.9
20260505203022 29 252 9.7 24.1 0.00 0.00 0.00 60 1001.2
20260505201517 29 194 8.0 25.7 0.00 0.00 0.00 62 1001.2
20260505200011 28 198 14.5 25.7 0.00 0.00 0.00 62 1001.2
20260505194512 28 188 19.3 33.8 0.00 0.00 0.00 64 1001.2
20260505193010 28 178 17.7 30.6 0.00 0.00 0.00 65 1001.1
20260505191507 28 181 17.7 30.6 0.00 0.00 0.00 66 1001.1
20260505190004 27 194 17.7 27.4 0.00 0.00 0.00 67 1001.2
20260505184601 27 160 17.7 29.0 0.00 0.00 0.00 67 1001.3
20260505183102 27 203 17.7 25.7 0.00 0.00 0.00 67 1001.4
20260505181557 27 182 17.7 32.2 0.00 0.00 0.00 67 1001.6
20260505180107 26 200 19.3 32.2 0.00 0.00 0.00 68 1001.4
20260505174603 26 213 22.5 35.4 0.00 0.00 0.00 70 1001.4
20260505173053 26 191 19.3 33.8 0.00 0.00 0.00 69 1001.4
20260505171550 26 174 16.1 33.8 0.00 0.00 0.00 71 1001.6
20260505170049 26 161 19.3 30.6 0.00 0.00 0.00 71 1001.5
20260505164550 25 190 16.1 40.2 0.00 0.00 0.00 72 1001.6
20260505163052 25 186 19.3 32.2 0.00 0.00 0.00 72 1002.0
20260505161549 25 204 19.3 37.0 0.00 0.00 0.00 72 1001.4
20260505153004 24 203 14.5 25.7 0.00 0.00 0.00 76 1001.2
20260505151603 24 186 17.7 30.6 0.00 0.00 0.00 78 1001.4
20260505124545 21 179 14.5 24.1 0.00 0.00 0.00 83 1001.0
20260505123041 21 180 17.7 27.4 0.00 0.00 0.00 84 1000.9
20260505121540 21 178 14.5 27.4 0.00 0.00 0.00 84 1000.9
20260505120042 21 167 16.1 24.1 0.00 0.00 0.00 85 1000.6
20260505114539 21 175 14.5 25.7 0.00 0.00 0.00 85 1000.5
20260505113038 21 156 12.9 22.5 0.00 0.00 0.00 84 1000.6
20260505111538 21 167 12.9 24.1 0.00 0.00 0.00 83 1000.4
20260505101536 21 194 14.5 29.0 0.00 0.00 0.00 83 1000.6
20260505100032 21 176 19.3 30.6 0.00 0.00 0.00 83 1000.4
20260505094531 21 156 16.1 30.6 0.00 0.00 0.00 84 1000.6
20260505093035 21 179 16.1 27.4 0.00 0.00 0.00 84 1000.8
20260505091528 21 187 16.1 32.2 0.00 0.00 0.00 84 1000.9
20260505090029 21 167 17.7 27.4 0.00 0.00 0.00 84 1001.0
20260505084529 21 174 16.1 30.6 0.00 0.00 0.00 83 1000.9
20260505083027 21 171 19.3 27.4 0.00 0.00 0.00 83 1000.9
20260505081523 21 187 19.3 29.0 0.00 0.00 0.00 82 1000.9
20260505080020 21 193 19.3 33.8 0.00 0.00 0.00 81 1001.1
20260505074518 21 190 16.1 27.4 0.00 0.00 0.00 81 1001.3
20260505073014 21 182 16.1 27.4 0.00 0.00 0.00 80 1001.6
20260505071513 21 184 19.3 35.4 0.00 0.00 0.00 79 1001.6
20260505070011 21 159 16.1 30.6 0.00 0.00 0.00 79 1001.9
20260505064508 22 146 17.7 32.2 0.00 0.00 0.00 78 1002.0
20260505063007 21 188 16.1 30.6 0.00 0.00 0.00 78 1002.1
20260505061509 22 167 20.9 33.8 0.00 0.00 0.00 77 1002.2
20260505060004 21 151 20.9 27.4 0.00 0.00 0.00 77 1002.1